Location: Chrome
(40.5765°N, 74.2163°W)
Time: 04:39:26
(UTC+00:00)

BREEZE-M DEB (TANK) - Pass Details

Date: 06 December 2019
Orbit: 345 x 16584 km, 49.4° (Epoch: 18 January)

Event Time Altitude Azimuth Distance (km) Brightness Sun altitude
Rises 22:13:44 0° 292° (WNW) 5,702 8.2 -8.3°
Reaches altitude 10° 22:19:18 10° 300° (WNW) 3,178 6.7 -9.3°
Maximum altitude 22:24:44 31° 4° (N) 1,002 3.4 -10.3°
Enters shadow 22:26:39 16° 63° (ENE) 1,228 3.4 -10.6°
